Flag for Switzerland Weather past 2 weeks in Mendrisio, Ticino, Switzerland

Now
65 °F

Mild.


Feels Like: 65 °F
Forecast: 63 / 79 °F
Wind: No wind

Location: Stabio

Current Time: Aug 4, 2015 at 8:23:39 AM

Latest Report: Aug 4, 2015 at 7:00 AM


Visibility: N/A

Pressure: 30.03 "Hg

Humidity: 98%

Dew point: 64 °F

Location of MendrisioLocation

Historic Weather in Mendrisio — Graph

°F

Mendrisio temperature yesterday

Maximum temperature yesterday: 84 °F (at 4:00 PM)
Minimum temperature yesterday: 60 °F (at 4:00 AM)
Average temperature yesterday: 73 °F

Past Weeks' High & Low Weather Summary

 TemperatureHumidityPressure
High94 °F (Jul 22, 4:00 PM)100% (Jul 25, 4:00 AM)30.08 "Hg (Jul 25, 4:00 AM)
Low57 °F (Aug 2, 6:00 AM)28% (Jul 26, 12:00 AM)29.62 "Hg (Jul 27, 6:00 PM)
Average73 °F72%29.86 "Hg
* Reported Jul 20 7:00 AM — Aug 4 7:00 AM, Mendrisio, Weather by CustomWeather, © 2015

Note: Actual official high and low records may vary slightly from our data, if they occured in-between our weather recording intervals... More about our weather records

Advertising

Mendrisio weather history for previous 24 hours

 ConditionsComfort  
Time TempWeatherWind HumidityBarometerVisibility
7:00 AM
Tue, Aug 4
65 °FMild.No wind98%30.03 "HgN/A
6:00 AM64 °FMild.1 mph99%30.03 "HgN/A
5:00 AM64 °FMild.No wind99%30.03 "HgN/A
4:00 AM65 °FMild.2 mph97%30.04 "HgN/A
3:00 AM65 °FMild.No wind100%30.05 "HgN/A
2:00 AM66 °FMild.No wind93%30.05 "HgN/A
1:00 AM66 °FMild.No wind99%30.04 "HgN/A
12:00 AM67 °FMild.No wind98%30.03 "HgN/A
10:00 PM
Mon, Aug 3
69 °FMild.No wind89%30.01 "HgN/A
9:00 PM72 °FMild.1 mph80%29.99 "HgN/A
8:00 PM77 °FMild.1 mph74%29.97 "HgN/A
7:00 PM83 °FWarm.2 mph58%29.96 "HgN/A
6:00 PM83 °FWarm.2 mph53%29.96 "HgN/A
5:00 PM83 °FWarm.2 mph50%29.98 "HgN/A
4:00 PM84 °FWarm.5 mph56%29.98 "HgN/A
3:00 PM83 °FWarm.3 mph56%30.00 "HgN/A
2:00 PM80 °FWarm.5 mph60%30.01 "HgN/A
1:00 PM81 °FWarm.3 mph60%30.02 "HgN/A
12:00 PM79 °FWarm.3 mph64%30.04 "HgN/A
11:00 AM77 °FWarm.2 mph70%30.04 "HgN/A
10:00 AM73 °FMild.1 mph74%30.05 "HgN/A
9:00 AM70 °FMild.2 mph79%30.06 "HgN/A
8:00 AM65 °FMild.No wind94%30.07 "HgN/A
Weather by CustomWeather, © 2015

See weather overviewHow to use our weather pages